Litchfield, MN

5:03 AM CST on February 21, 2017 (GMT -0600)
Litchfield Municipal

Weather History for KLJF - June, 2012

Change the Weather History Date:

Tuesday, June 26, 2012

  Actual Average Record
Temperature  
Mean Temperature 68 °F -  
Max Temperature 80 °F 81 °F 98 °F (1964)
Min Temperature 57 °F 59 °F 44 °F (1992)
Cooling Degree Days 4    
Growing Degree Days 18 (Base 50)    
Moisture  
Dew Point 52 °F    
Average Humidity 56    
Maximum Humidity 88    
Minimum Humidity 30    
Precipitation  
Precipitation 0.00 in - - ()
Sea Level Pressure  
Sea Level Pressure 29.89 in    
Wind  
Wind Speed 9 mph (SE)    
Max Wind Speed 17 mph    
Max Gust Speed 25 mph    
Visibility 10 miles    
Events      
Averages and records for this station are not official NWS values.
T = Trace of Precipitation, MM = Missing Value Source: NWS Daily Summary

Daily Weather History Graph

Daily Weather History Graph

Search for Another Location

Airport or City:

Trip Planner

Search our weather history database for the weather conditions in past years. The results will help you decide how hot, cold, wet, or windy it might be!

Date:

Astronomy

Jun. 26, 2012 Rise Set
Actual Time 5:32 AM CDT 9:09 PM CDT
Civil Twilight 4:55 AM CDT 9:46 PM CDT
Nautical Twilight 4:05 AM CDT 10:36 PM CDT
Astronomical Twilight 2:59 AM CDT 11:42 PM CDT
Moon 1:11 PM CDT (6/26) 12:18 AM CDT (6/26)
Length of Visible Light 16h 51m
Length of Day
15h 36m
Waxing Crescent, 45% of the Moon is Illuminated
Jun 26
Waxing Crescent
Jun 26
First Quarter
Jul 3
Full
Jul 10
Last Quarter
Jul 18
New

Hourly Weather History & Observations

Time (CDT) Temp. Dew Point Humidity Pressure Visibility Wind Dir Wind Speed Gust Speed Precip Events Conditions
12:13 AM 60.8 °F 51.8 °F 72% 30.04 in 10.0 mi ESE 9.2 mph - N/A   Clear
12:33 AM 60.8 °F 53.6 °F 77% 30.04 in 10.0 mi SE 5.8 mph - N/A   Clear
12:53 AM 60.8 °F 51.8 °F 72% 30.02 in 10.0 mi ESE 9.2 mph - N/A   Clear
1:13 AM 62.6 °F 53.6 °F 72% 30.02 in 10.0 mi SE 8.1 mph - N/A   Scattered Clouds
1:33 AM 62.6 °F 51.8 °F 68% 30.03 in 10.0 mi SE 5.8 mph - N/A   Clear
1:53 AM 62.6 °F 51.8 °F 68% 30.04 in 10.0 mi SE 4.6 mph - N/A   Clear
2:13 AM 62.6 °F 51.8 °F 68% 30.03 in 10.0 mi SE 5.8 mph - N/A   Clear
2:33 AM 60.8 °F 50.0 °F 68% 30.01 in 10.0 mi SE 6.9 mph - N/A   Clear
2:53 AM 60.8 °F 51.8 °F 72% 30.01 in 10.0 mi SE 5.8 mph - N/A   Scattered Clouds
3:13 AM 60.8 °F 51.8 °F 72% 30.00 in 10.0 mi SE 5.8 mph - N/A   Clear
3:33 AM 60.8 °F 51.8 °F 72% 30.00 in 10.0 mi SSE 4.6 mph - N/A   Clear
3:53 AM 60.8 °F 51.8 °F 72% 30.01 in 10.0 mi Calm Calm - N/A   Scattered Clouds
4:13 AM 57.2 °F 50.0 °F 77% 30.01 in 10.0 mi SE 4.6 mph - N/A   Scattered Clouds
4:33 AM 57.2 °F 50.0 °F 77% 30.00 in 10.0 mi SE 5.8 mph - N/A   Clear
4:53 AM 57.2 °F 51.8 °F 82% 30.00 in 10.0 mi SE 4.6 mph - N/A   Scattered Clouds
5:13 AM 57.2 °F 51.8 °F 82% 29.99 in 10.0 mi SE 5.8 mph - N/A   Scattered Clouds
5:33 AM 57.2 °F 53.6 °F 88% 29.98 in 10.0 mi SE 6.9 mph - N/A   Clear
5:53 AM 59.0 °F 53.6 °F 82% 29.97 in 10.0 mi SE 8.1 mph - N/A   Clear
6:13 AM 60.8 °F 55.4 °F 82% 29.98 in 10.0 mi SSE 5.8 mph - N/A   Clear
6:33 AM 62.6 °F 55.4 °F 77% 29.98 in 10.0 mi SE 6.9 mph - N/A   Clear
6:53 AM 62.6 °F 55.4 °F 77% 29.97 in 10.0 mi SSE 6.9 mph - N/A   Clear
7:13 AM 62.6 °F 53.6 °F 72% 29.97 in 10.0 mi SE 8.1 mph - N/A   Clear
7:33 AM 62.6 °F 53.6 °F 72% 29.97 in 10.0 mi SE 8.1 mph - N/A   Clear
7:53 AM 62.6 °F 53.6 °F 72% 29.96 in 10.0 mi SE 9.2 mph 16.1 mph N/A   Clear
8:13 AM 62.6 °F 53.6 °F 72% 29.95 in 10.0 mi SSE 10.4 mph 17.3 mph N/A   Clear
8:33 AM 64.4 °F 53.6 °F 68% 29.93 in 10.0 mi SE 11.5 mph 19.6 mph N/A   Clear
8:53 AM 64.4 °F 53.6 °F 68% 29.94 in 10.0 mi SE 11.5 mph 16.1 mph N/A   Clear
9:13 AM 64.4 °F 53.6 °F 68% 29.96 in 10.0 mi SSE 9.2 mph - N/A   Clear
9:33 AM 66.2 °F 53.6 °F 64% 29.97 in 10.0 mi SSE 8.1 mph - N/A   Clear
9:52 AM 68.0 °F 55.4 °F 64% 29.96 in 10.0 mi SSE 9.2 mph - N/A   Clear
10:13 AM 68.0 °F 53.6 °F 60% 29.97 in 10.0 mi SSE 9.2 mph - N/A   Clear
10:33 AM 68.0 °F 51.8 °F 56% 29.96 in 10.0 mi SSE 8.1 mph - N/A   Clear
10:53 AM 69.8 °F 51.8 °F 53% 29.95 in 10.0 mi SE 9.2 mph - N/A   Clear
11:13 AM 69.8 °F 53.6 °F 56% 29.96 in 10.0 mi SE 11.5 mph 17.3 mph N/A   Clear
11:33 AM 71.6 °F 50.0 °F 46% 29.95 in 10.0 mi SSE 9.2 mph - N/A   Clear
11:53 AM 71.6 °F 50.0 °F 46% 29.94 in 10.0 mi SSE 5.8 mph - N/A   Clear
12:13 PM 73.4 °F 50.0 °F 44% 29.93 in 10.0 mi SE 12.7 mph 19.6 mph N/A   Clear
12:33 PM 73.4 °F 50.0 °F 44% 29.91 in 10.0 mi SE 12.7 mph 18.4 mph N/A   Clear
12:53 PM 75.2 °F 48.2 °F 38% 29.91 in 10.0 mi SSE 10.4 mph 18.4 mph N/A   Clear
1:13 PM 75.2 °F 48.2 °F 38% 29.90 in 10.0 mi SE 12.7 mph 19.6 mph N/A   Clear
1:33 PM 75.2 °F 48.2 °F 38% 29.88 in 10.0 mi SSE 10.4 mph 20.7 mph N/A   Clear
1:53 PM 75.2 °F 48.2 °F 38% 29.87 in 10.0 mi SE 13.8 mph 20.7 mph N/A   Clear
2:13 PM 75.2 °F 50.0 °F 41% 29.86 in 10.0 mi SE 17.3 mph 20.7 mph N/A   Clear
2:32 PM 78.8 °F 50.0 °F 36% 29.86 in 10.0 mi SSE 12.7 mph 19.6 mph N/A   Clear
2:53 PM 78.8 °F 46.4 °F 32% 29.85 in 10.0 mi SE 15.0 mph 19.6 mph N/A   Clear
3:13 PM 78.8 °F 46.4 °F 32% 29.84 in 10.0 mi SE 13.8 mph 21.9 mph N/A   Clear
3:32 PM 78.8 °F 46.4 °F 32% 29.82 in 10.0 mi SE 17.3 mph 24.2 mph N/A   Clear
3:53 PM 78.8 °F 46.4 °F 32% 29.82 in 10.0 mi SE 17.3 mph 21.9 mph N/A   Clear
4:13 PM 80.6 °F 48.2 °F 32% 29.81 in 10.0 mi SE 13.8 mph 24.2 mph N/A   Clear
4:32 PM 80.6 °F 46.4 °F 30% 29.80 in 10.0 mi SE 12.7 mph 25.3 mph N/A   Clear
4:53 PM 80.6 °F 48.2 °F 32% 29.79 in 10.0 mi SE 17.3 mph - N/A   Clear
5:13 PM 80.6 °F 46.4 °F 30% 29.78 in 10.0 mi SE 13.8 mph 20.7 mph N/A   Clear
5:32 PM 80.6 °F 48.2 °F 32% 29.78 in 10.0 mi SSE 15.0 mph 19.6 mph N/A   Clear
5:53 PM 80.6 °F 48.2 °F 32% 29.76 in 10.0 mi SSE 12.7 mph 21.9 mph N/A   Clear
6:13 PM 80.6 °F 48.2 °F 32% 29.76 in 10.0 mi SSE 16.1 mph 20.7 mph N/A   Clear
6:33 PM 80.6 °F 48.2 °F 32% 29.75 in 10.0 mi SE 15.0 mph 23.0 mph N/A   Clear
6:53 PM 80.6 °F 50.0 °F 34% 29.75 in 10.0 mi SE 13.8 mph 20.7 mph N/A   Clear
7:12 PM 80.6 °F 51.8 °F 37% 29.74 in 10.0 mi SE 11.5 mph 18.4 mph N/A   Clear
7:33 PM 78.8 °F 51.8 °F 39% 29.74 in 10.0 mi SE 10.4 mph 16.1 mph N/A   Clear
7:53 PM 78.8 °F 53.6 °F 42% 29.73 in 10.0 mi SE 9.2 mph - N/A   Clear
8:13 PM 78.8 °F 53.6 °F 42% 29.73 in 10.0 mi SE 9.2 mph - N/A   Clear
8:33 PM 75.2 °F 53.6 °F 47% 29.73 in 10.0 mi SE 8.1 mph - N/A   Clear
8:53 PM 75.2 °F 53.6 °F 47% 29.72 in 10.0 mi SE 8.1 mph - N/A   Clear
9:13 PM 73.4 °F 53.6 °F 50% 29.72 in 10.0 mi SE 8.1 mph - N/A   Clear
9:33 PM 73.4 °F 55.4 °F 53% 29.73 in 10.0 mi SE 8.1 mph - N/A   Clear
9:53 PM 71.6 °F 55.4 °F 57% 29.73 in 10.0 mi SE 8.1 mph - N/A   Scattered Clouds
10:13 PM 71.6 °F 55.4 °F 57% 29.73 in 10.0 mi SE 8.1 mph - N/A   Scattered Clouds
10:33 PM 71.6 °F 55.4 °F 57% 29.74 in 10.0 mi SE 6.9 mph - N/A   Scattered Clouds
10:53 PM 69.8 °F 55.4 °F 60% 29.73 in 10.0 mi SE 6.9 mph - N/A   Scattered Clouds
11:13 PM 69.8 °F 55.4 °F 60% 29.73 in 10.0 mi SE 6.9 mph - N/A   Scattered Clouds
11:33 PM 71.6 °F 55.4 °F 57% 29.72 in 10.0 mi SE 6.9 mph - N/A   Scattered Clouds
11:53 PM 69.8 °F 55.4 °F 60% 29.71 in 10.0 mi SE 8.1 mph - N/A   Scattered Clouds